World > North America > United States > Pennsylvania
Hourly Weather in Shamokin, PennsylvaniaShamokin, Pennsylvania Hourly Weather

Shamokin, PA Hourly Weather

Hourly Weather Shamokin, PennsylvaniaHourly Weather in Shamokin, PA
Lat: 40.79N, Lon: 76.55W  ICAO: KSEG
Web Search

Pass this page to a friend. Tell them to point their camera at the QR Code near the bottom of this page.

Feedback

Shamokin Hourly Weather

36 Hour Weather Scroll   °F Click to change Shamokin hourly weather to Imperial units.Click to change Shamokin hourly weather to Metric units. °C
Currently, Clear, temperature is 33°F1°C, dew point 20°F-7°C, humidity 58%. Wind direction is N at 5 mph8 km/h with visibility of 10.00 mi16 km. Barometric pressure is 30.21 in1023 mb.

Dec 07
10:00 AM

Dec 07
11:00 AM

Dec 07
NOON

Dec 07
1:00 PM

Dec 07
2:00 PM

Dec 07
3:00 PM

Dec 07
4:00 PM

Dec 07
5:00 PM

Dec 07
6:00 PM

Dec 07
7:00 PM

Dec 07
8:00 PM

Dec 07
9:00 PM

Dec 07
10:00 PM

Dec 07
11:00 PM

Dec 08
MIDNIGHT

Dec 08
1:00 AM

Dec 08
2:00 AM

Dec 08
3:00 AM

Dec 08
4:00 AM

Dec 08
5:00 AM

Dec 08
6:00 AM

Dec 08
7:00 AM

Dec 08
8:00 AM

Dec 08
9:00 AM

Dec 08
10:00 AM

Dec 08
11:00 AM

Dec 08
NOON

Dec 08
1:00 PM

Dec 08
2:00 PM

Dec 08
3:00 PM

Dec 08
4:00 PM

Dec 08
5:00 PM

Dec 08
6:00 PM

Dec 08
7:00 PM

Dec 08
8:00 PM

Dec 08
9:00 PM
Mostly Cloudy Mostly Cloudy Cloudy Cloudy Cloudy Cloudy Cloudy Cloudy Cloudy Cloudy Cloudy Cloudy Cloudy Cloudy Cloudy Cloudy Cloudy Cloudy Cloudy Cloudy Cloudy Cloudy Cloudy Mostly Cloudy Mostly Cloudy Mostly Cloudy Cloudy Cloudy Cloudy Cloudy Cloudy Cloudy Cloudy Cloudy Cloudy Clear
Mostly Cloudy Mostly Cloudy Cloudy Cloudy Cloudy Cloudy Cloudy Cloudy Cloudy Cloudy Cloudy Cloudy Cloudy Cloudy Cloudy Cloudy Cloudy Cloudy Cloudy Cloudy Cloudy Cloudy Cloudy Mostly Cloudy Mostly Cloudy Mostly Cloudy Cloudy Cloudy Cloudy Cloudy Cloudy Cloudy Cloudy Cloudy Cloudy Clear
33°F1°C 35°F2°C 36°F2°C 38°F3°C 38°F3°C 38°F3°C 38°F3°C 35°F2°C 32°F0°C 29°F-2°C 28°F-2°C 28°F-2°C 27°F-3°C 28°F-2°C 28°F-2°C 29°F-2°C 29°F-2°C 29°F-2°C 29°F-2°C 29°F-2°C 29°F-2°C 29°F-2°C 31°F-1°C 32°F0°C 34°F1°C 36°F2°C 38°F3°C 40°F4°C 40°F4°C 40°F4°C 40°F4°C 37°F3°C 35°F2°C 32°F0°C 31°F-1°C 31°F-1°C
- - - - - - - - - - - - - - - - - - - - - - - - - - - - - - - - - - - -
1% 1% 1% 1% 0% 0% 0% 0% 0% 0% 2% 2% 2% 2% 2% 2% 13% 13% 13% 13% 13% 13% 6% 6% 6% 6% 6% 6% 13% 13% 13% 13% 13% 13% 2% 2%
20°F-7°C 19°F-7°C 19°F-7°C 18°F-8°C 17°F-8°C 17°F-8°C 16°F-9°C 17°F-8°C 17°F-8°C 18°F-8°C 19°F-7°C 21°F-6°C 22°F-6°C 22°F-6°C 23°F-5°C 23°F-5°C 23°F-5°C 23°F-5°C 23°F-5°C 23°F-5°C 23°F-5°C 23°F-5°C 23°F-5°C 23°F-5°C 23°F-5°C 23°F-5°C 22°F-6°C 22°F-6°C 22°F-6°C 21°F-6°C 21°F-6°C 21°F-6°C 22°F-6°C 22°F-6°C 22°F-6°C 23°F-5°C
58% 52% 50% 44% 42% 42% 40% 47% 53% 63% 69% 75% 81% 78% 81% 78% 78% 78% 78% 78% 78% 78% 72% 69% 64% 59% 52% 48% 48% 46% 46% 52% 59% 66% 69% 72%
W W W SSW SSW SSW SSW SSW SSW SW SSE E N N N N N N N NE E SE SE SSE SSE S S S SW SSW SSW W NW NW NW NW
6 mph 6 mph 6 mph 6 mph 6 mph 5 mph 5 mph 5 mph 1 mph 1 mph 1 mph 0 mph 0 mph 0 mph 0 mph 0 mph 0 mph 0 mph 0 mph 0 mph 1 mph 1 mph 1 mph 3 mph 3 mph 3 mph 4 mph 4 mph 4 mph 3 mph 3 mph 3 mph 2 mph 2 mph 2 mph 3 mph
10 mi16 km 10 mi16 km 10 mi16 km 10 mi16 km 10 mi16 km 10 mi16 km 10 mi16 km 10 mi16 km 10 mi16 km 10 mi16 km 10 mi16 km 10 mi16 km 10 mi16 km 10 mi16 km 10 mi16 km 10 mi16 km 10 mi16 km 10 mi16 km 10 mi16 km 10 mi16 km 10 mi16 km 10 mi16 km 10 mi16 km 10 mi16 km 10 mi16 km 10 mi16 km 10 mi16 km 10 mi16 km 10 mi16 km 10 mi16 km 10 mi16 km 10 mi16 km 10 mi16 km 10 mi16 km 10 mi16 km 10 mi16 km
Hour (EST)
Weather
Clouds
Temperature
Precip. Type
POP
Dewpoint
Humidity
Wind Direction
Wind Speed
Visibility
POP = Probability of Precipitation. ** Indicates missing data/values from model statistics.

24 Hour Forecast

Rest of Today - Mostly cloudy. Much cooler with highs in the mid 30s. West winds 5 to 10 mph.
Tonight - Cloudy. A chance of light snow after midnight. Lows in the mid 20s. West winds around 5 mph, becoming south after midnight. Chance of snow 30%.

48 Hour Forecast API Feed


Tue, Dec 7
10:00 am

Tue, Dec 7
11:00 am

Tue, Dec 7
Noon

Tue, Dec 7
1:00 pm

Tue, Dec 7
2:00 pm

Tue, Dec 7
3:00 pm

Tue, Dec 7
4:00 pm

Tue, Dec 7
5:00 pm

Tue, Dec 7
6:00 pm

Tue, Dec 7
7:00 pm

Tue, Dec 7
8:00 pm

Tue, Dec 7
9:00 pm

Tue, Dec 7
10:00 pm

Tue, Dec 7
11:00 pm

Wed, Dec 8
Midnight

Wed, Dec 8
1:00 am

Wed, Dec 8
2:00 am

Wed, Dec 8
3:00 am

Wed, Dec 8
4:00 am

Wed, Dec 8
5:00 am

Wed, Dec 8
6:00 am

Wed, Dec 8
7:00 am

Wed, Dec 8
8:00 am

Wed, Dec 8
9:00 am

Wed, Dec 8
10:00 am

Wed, Dec 8
11:00 am

Wed, Dec 8
Noon

Wed, Dec 8
1:00 pm

Wed, Dec 8
2:00 pm

Wed, Dec 8
3:00 pm

Wed, Dec 8
4:00 pm

Wed, Dec 8
5:00 pm

Wed, Dec 8
6:00 pm

Wed, Dec 8
7:00 pm

Wed, Dec 8
8:00 pm

Wed, Dec 8
9:00 pm

Wed, Dec 8
10:00 pm

Wed, Dec 8
11:00 pm

Thu, Dec 9
Midnight

Thu, Dec 9
1:00 am

Thu, Dec 9
2:00 am

Thu, Dec 9
3:00 am

Thu, Dec 9
4:00 am

Thu, Dec 9
5:00 am

Thu, Dec 9
6:00 am

Thu, Dec 9
7:00 am

Thu, Dec 9
8:00 am

Thu, Dec 9
9:00 am
Partly CloudyCloudyCloudyOvercastOvercastOvercastCloudyCloudyPartly CloudyPartly CloudyCloudyCloudyCloudyCloudyOvercastOvercastOvercastLight SnowOvercastModerate SnowOvercastLight SnowPartly CloudyPartly CloudyPartly CloudyPartly CloudyPartly CloudySunnyPartly CloudyOvercastOvercastOvercastOvercastOvercastPartly CloudyPartly CloudyClearClearClearClearClearClearClearClearClearCloudyOvercastSunny
Partly cloudy Cloudy Cloudy Overcast Overcast Overcast Cloudy Cloudy Partly cloudy Partly cloudy Cloudy Cloudy Cloudy Cloudy Overcast Overcast Overcast Light snow Overcast Moderate snow Overcast Light snow Partly cloudy Partly cloudy Partly cloudy Partly cloudy Partly cloudy Sunny Partly cloudy Overcast Overcast Overcast Overcast Overcast Partly cloudy Partly cloudy Clear Clear Clear Clear Clear Clear Clear Clear Clear Cloudy Overcast Sunny
31°F
-1°C
33°F
0°C
33°F
1°C
35°F
1°C
35°F
2°C
36°F
2°C
36°F
2°C
35°F
2°C
32°F
0°C
32°F
0°C
31°F
-0°C
31°F
-0°C
31°F
-1°C
31°F
-1°C
31°F
-1°C
31°F
-0°C
31°F
-0°C
31°F
-1°C
31°F
-1°C
31°F
-1°C
31°F
-1°C
31°F
-1°C
31°F
-1°C
31°F
-1°C
33°F
0°C
36°F
2°C
38°F
3°C
38°F
4°C
39°F
4°C
38°F
4°C
38°F
3°C
35°F
2°C
34°F
1°C
33°F
1°C
31°F
-1°C
29°F
-2°C
28°F
-2°C
27°F
-3°C
26°F
-4°C
25°F
-4°C
24°F
-4°C
24°F
-4°C
24°F
-4°C
24°F
-4°C
24°F
-4°C
24°F
-5°C
24°F
-4°C
26°F
-3°C
21°F
-6°C
21°F
-6°C
21°F
-6°C
20°F
-6°C
20°F
-7°C
19°F
-7°C
18°F
-8°C
19°F
-7°C
19°F
-8°C
19°F
-7°C
19°F
-7°C
19°F
-7°C
19°F
-8°C
19°F
-8°C
18°F
-8°C
19°F
-8°C
19°F
-8°C
18°F
-8°C
18°F
-8°C
18°F
-8°C
18°F
-8°C
18°F
-8°C
18°F
-8°C
18°F
-8°C
17°F
-8°C
17°F
-8°C
19°F
-8°C
20°F
-6°C
22°F
-6°C
23°F
-5°C
24°F
-5°C
24°F
-5°C
22°F
-5°C
22°F
-6°C
21°F
-6°C
22°F
-6°C
22°F
-5°C
22°F
-6°C
22°F
-6°C
22°F
-6°C
21°F
-6°C
20°F
-6°C
20°F
-7°C
20°F
-7°C
20°F
-7°C
20°F
-7°C
20°F
-7°C
20°F
-7°C
30.24 in
1024 mb
30.24 in
1024 mb
30.24 in
1024 mb
30.21 in
1023 mb
30.21 in
1023 mb
30.18 in
1022 mb
30.18 in
1022 mb
30.21 in
1023 mb
30.21 in
1023 mb
30.21 in
1023 mb
30.21 in
1023 mb
30.21 in
1023 mb
30.21 in
1023 mb
30.21 in
1023 mb
30.21 in
1023 mb
30.18 in
1022 mb
30.15 in
1021 mb
30.15 in
1021 mb
30.15 in
1021 mb
30.12 in
1020 mb
30.12 in
1020 mb
30.12 in
1020 mb
30.12 in
1020 mb
30.09 in
1019 mb
30.09 in
1019 mb
30.06 in
1018 mb
30.06 in
1018 mb
30 in
1016 mb
29.97 in
1015 mb
29.94 in
1014 mb
29.94 in
1014 mb
29.94 in
1014 mb
29.97 in
1015 mb
29.97 in
1015 mb
30 in
1016 mb
30 in
1016 mb
30.03 in
1017 mb
30.03 in
1017 mb
30.06 in
1018 mb
30.06 in
1018 mb
30.09 in
1019 mb
30.12 in
1020 mb
30.12 in
1020 mb
30.15 in
1021 mb
30.15 in
1021 mb
30.18 in
1022 mb
30.24 in
1024 mb
30.24 in
1024 mb
67%62%60%56%52%49%48%51%56%58%59%59%60%60%59%59%58%59%58%59%59%59%59%59%51%46%45%48%50%53%57%62%63%62%66%75%79%80%84%87%87%85%84%84%85%84%82%75%
WWWWWWWWSWWSWWSWWSWWSWWSWSWSSWSSWSSESSESESESESESESSESSESSSWSSWSWWSWWWNWNWWNWNWNWWNWWNWWNWWNWNWNWNWNWNWWNWWNW
8 mph
13 km/h
8 mph
13 km/h
8 mph
12 km/h
8 mph
12 km/h
7 mph
12 km/h
7 mph
12 km/h
6 mph
10 km/h
6 mph
9 km/h
4 mph
7 km/h
4 mph
6 km/h
3 mph
5 km/h
3 mph
5 km/h
3 mph
4 km/h
2 mph
4 km/h
2 mph
4 km/h
2 mph
3 km/h
2 mph
3 km/h
2 mph
3 km/h
1 mph
1 km/h
1 mph
2 km/h
2 mph
3 km/h
2 mph
4 km/h
3 mph
5 km/h
3 mph
4 km/h
4 mph
6 km/h
6 mph
10 km/h
8 mph
12 km/h
8 mph
13 km/h
7 mph
11 km/h
6 mph
10 km/h
4 mph
7 km/h
4 mph
6 km/h
3 mph
5 km/h
2 mph
4 km/h
4 mph
6 km/h
5 mph
8 km/h
6 mph
10 km/h
6 mph
10 km/h
6 mph
10 km/h
5 mph
8 km/h
4 mph
7 km/h
4 mph
7 km/h
5 mph
8 km/h
4 mph
6 km/h
4 mph
6 km/h
4 mph
6 km/h
3 mph
5 km/h
3 mph
5 km/h
0%0%0%0%0%0%0%0%0%0%0%0%0%0%0%0%0%0%0%0%0%0%0%0%0%0%0%0%0%0%0%0%0%0%0%0%0%0%0%0%0%0%0%0%0%0%0%0%
6 mi
10 km
6 mi
10 km
6 mi
10 km
6 mi
10 km
6 mi
10 km
6 mi
10 km
6 mi
10 km
6 mi
10 km
6 mi
10 km
6 mi
10 km
6 mi
10 km
6 mi
10 km
6 mi
10 km
6 mi
10 km
6 mi
10 km
6 mi
10 km
6 mi
10 km
6 mi
10 km
6 mi
10 km
3 mi
5 km
6 mi
10 km
6 mi
10 km
6 mi
10 km
6 mi
10 km
6 mi
10 km
6 mi
10 km
6 mi
10 km
6 mi
10 km
6 mi
10 km
6 mi
10 km
6 mi
10 km
6 mi
10 km
6 mi
10 km
6 mi
10 km
6 mi
10 km
6 mi
10 km
6 mi
10 km
6 mi
10 km
6 mi
10 km
6 mi
10 km
6 mi
10 km
6 mi
10 km
6 mi
10 km
6 mi
10 km
6 mi
10 km
6 mi
10 km
6 mi
10 km
6 mi
10 km

Day/Time
Weather
Condition
Temperature
Dew Point
Pressure
Humidity
Wind Direction
Wind Speed
Prob Precip %
Visibility
Prob Precip % = Probability of Precipitation.